Regional Weather Roundup
Issued by NWS Albany, NY

Home | Current Version | Previous Version | Text Only | Print | Product List | Glossary On
Versions: 1 2 3 4 5 6 7 8 9 10 11 12 13 14 15 16 17 18 19 20 21 22 23 24 25 26 27 28 29 30 31 32 33 34 35 36 37 38 39 40 41 42 43 44 45 46 47 48 49 50
433
ASUS41 KALY 222010
RWRALY

NEW YORK STATE HOURLY WEATHER ROUNDUP
NATIONAL WEATHER SERVICE ALBANY NY
400 PM EDT SAT JUL 22 2017

NOTE: "FAIR" INDICATES FEW OR NO CLOUDS BELOW 12,000 FEET WITH NO
SIGNIFICANT WEATHER AND/OR NO OBSTRUCTIONS TO VISIBILITY.

NYZ032-033-038>043-046>054-057>066-NYZ062>081-082-084-222100-
EAST


CITY           SKY/WX    TMP DP  RH WIND       PRES   REMARKS
ALBANY         LGT RAIN  76  66  71 N5        29.84F
GLENS FALLS    CLOUDY    77  67  71 S8        29.82F
POUGHKEEPSIE   CLOUDY    83  61  47 SE3       29.80F
NEWBURGH       PTSUNNY   82  63  51 W7        29.85S
MONTGOMERY     CLOUDY    84  65  52 S6        29.81F
WHITE PLAINS   MOSUNNY   84  63  48 SE7       29.82F
ISLIP          CLOUDY    86  63  45 VRB3      29.81F
NEW YORK CITY  CLOUDY    88  65  46 NE10      29.79F HX  90
CENTRAL PARK   MOSUNNY   88  62  41 CALM      29.82F
$$

NYZ005>009-017-018-044>046-055-056-222100-
CENTRAL


CITY           SKY/WX    TMP DP  RH WIND       PRES   REMARKS
FULTON         LGT RAIN  74  67  78 N3        29.85F
SYRACUSE       LGT RAIN  76  63  64 NW3       29.84F
ROME           LGT RAIN  72  66  81 N5        29.87S
ELMIRA         CLOUDY    78  67  68 NE7       29.83F
BINGHAMTON     MOSUNNY   73  65  75 NE6       29.88F
$$

NYZ026>034-041>043-087-222100-
NORTH


CITY           SKY/WX    TMP DP  RH WIND       PRES   REMARKS
WATERTOWN      CLOUDY    72  66  81 SW5       29.85F
FORT DRUM      NOT AVBL
OGDENSBURG     FAIR      80  61  52 NE5       29.84S
MASSENA        CLOUDY    79  60  52 VRB3      29.85S
SARANAC LAKE   MOSUNNY   76  61  59 NW7       29.86S
PLATTSBURGH    MOSUNNY   75  58  55 NE8       29.83F
$$

NYZ001>004-010>016-019>021-085-222100-
WEST


CITY           SKY/WX    TMP DP  RH WIND       PRES   REMARKS
NIAGARA FALLS  CLOUDY    78  62  57 E8        29.81F
BUFFALO        CLOUDY    76  62  62 E9        29.81F
DUNKIRK        CLOUDY    77  70  79 NE7       29.80F
JAMESTOWN      CLOUDY    73  64  73 E5        29.84F
WELLSVILLE     LGT RAIN  76  66  71 E5        29.88F
ROCHESTER      PTSUNNY   78  67  68 SE6       29.83F
PENN YAN       CLOUDY    75  63  66 CALM      29.85F
$$

             KEY
       WCI = WIND CHILL INDEX
       VSB = VISIBILITY
       HX  = HEAT INDEX
$$




USA.gov is the U.S. government's official web portal to all federal, state and local government web resources and services.